World > North America > United States > South Dakota > Fulton

Fulton, SD Hourly Weather Conditions

Feedback E-mail the Weather

Quick WX

Fulton, SD Weather Maps

°F °C°F °C
Fulton Weather Map
UTC Time: 2/9/2023, 11:37
Your Time:

Fulton, SD Regional Weather

Expires:202302091200;;059874
ASUS43 KFSD 091110
RWRFSD

WEATHER ROUNDUP FOR SE SOUTH DAKOTA/SW MINNESOTA/NW IOWA
NATIONAL WEATHER SERVICE SIOUX FALLS SD
500 AM CST THU FEB 09 2023

NOTE: "FAIR" INDICATES FEW OR NO CLOUDS BELOW 12,000 FEET WITH NO
SIGNIFICANT WEATHER AND OR OBSTRUCTIONS TO VISIBILITY.



SDZ038>040-050-052>070-091200-
SOUTHEAST SOUTH DAKOTA
  
CITY           SKY/WX    TMP DP  RH WIND       PRES   REMARKS
BROOKINGS      CLOUDY    27  25  92 N10       29.90R WCI  17 TC  -3   
CHAMBERLAIN    MOCLDY    32  28  88 NW17      30.04R WCI  20 TC   0   
HURON          CLOUDY    29  26  89 NW18      29.99R WCI  16 TC  -2   
MADISON        CLOUDY    30  30 100 N17       29.89R WCI  18 TC  -1   
MITCHELL       PTCLDY    30  25  81 NW15      29.98R WCI  19 TC  -1   
SIOUX FALLS    CLOUDY    31  27  85 N13       29.87F WCI  21 TC  -1   
WINNER         PTCLDY    32  27  81 NW20      30.06R WCI  20 TC   0   
YANKTON        CLOUDY    34  30  85 NW26      29.89F WCI  21 TC   1   
$$


SKY/WX - Weather  TMP - Temperature  DP - Dew Point  RH - Humidity
WIND - Wind Direction/Speed PRES - Barometric Pressure VSB - Visibility
WCI - Wind Chill Index E13G22 Wind - East Wind 13 mph/Gusts of 22 mph

Trending Headlines

Trending Entertainment Headlines

Fulton Radar Loop

Use the map search tool if you want to place a location marker on the radar map...

Fulton Quick Facts

National Two Day Weather Forecast


E-mail the Fulton Weather Forecast

Voice your opinion or tell us about page issues...